DRAGON CRS-11

Last updated on Tue Jul 04 2017 00:15:03 GMT+0000 (Coordinated Universal Time)

1 42744U 17030A 17183.54984348 .00001205 00000-0 25484-4 0 9992 2 42744 51.6430 321.7524 0004913 352.0631 101.5772 15.54107724 4466
UTC large
Height (km)
Speed (km/s)
/
Latitude / Longitude
Inclination (degrees)
Orbital Period (minutes)
Azimuth
Elevation
Range (km)
Doppler Factor

Next 0 passes for location: London (51.5072 / 0.1276)

Sorry there are no passes over London.